Roseau, MN

12:17 AM CDT on August 21, 2017 (GMT -0500)
Roseau Municipal-Billberg

Weather History for KROX - June, 2013

Change the Weather History Date:

Monday, June 3, 2013

  Actual Average Record
Temperature  
Mean Temperature 50 °F -  
Max Temperature 62 °F 73 °F 89 °F (1968)
Min Temperature 39 °F 43 °F 31 °F (1964)
Degree Days  
Heating Degree Days 14    
Moisture  
Dew Point 39 °F    
Average Humidity 62    
Maximum Humidity 87    
Minimum Humidity 39    
Precipitation  
Precipitation 0.00 in - - ()
Sea Level Pressure  
Sea Level Pressure 30.07 in    
Wind  
Wind Speed 4 mph (ENE)    
Max Wind Speed 17 mph    
Max Gust Speed 18 mph    
Visibility 10 miles    
Events      
Averages and records for this station are not official NWS values.
T = Trace of Precipitation, MM = Missing Value Source: NWS Daily Summary

Daily Weather History Graph

Daily Weather History Graph

Search for Another Location

Airport or City:

Trip Planner

Search our weather history database for the weather conditions in past years. The results will help you decide how hot, cold, wet, or windy it might be!

Date:

Astronomy

Jun. 03, 2013 Rise Set
Actual Time 5:22 AM CDT 9:20 PM CDT
Civil Twilight 4:41 AM CDT 10:01 PM CDT
Nautical Twilight 3:43 AM CDT 10:59 PM CDT
Astronomical Twilight 2:08 AM CDT 12:36 AM CDT
Moon 2:43 AM CDT (6/3) 4:32 PM CDT (6/3)
Length of Visible Light 17h 20m
Length of Day
15h 57m
Waning Crescent, 22% of the Moon is Illuminated
Jun 3
Waning Crescent
Jun 8
New
Jun 16
First Quarter
Jun 23
Full
Jun 29
Last Quarter

Hourly Weather History & Observations

Time (CDT) Temp. Windchill Dew Point Humidity Pressure Visibility Wind Dir Wind Speed Gust Speed Precip Events Conditions
12:15 AM 46.4 °F - 39.2 °F 76% 30.06 in 10.0 mi Calm Calm - N/A   Clear
12:34 AM 44.6 °F - 39.2 °F 81% 30.06 in 10.0 mi Calm Calm - N/A   Clear
12:54 AM 44.6 °F - 39.2 °F 81% 30.06 in 10.0 mi Calm Calm - N/A   Clear
1:15 AM 46.4 °F - 39.2 °F 76% 30.06 in 10.0 mi Calm Calm - N/A   Clear
1:34 AM 46.4 °F 45.2 °F 37.4 °F 71% 30.06 in 10.0 mi NNE 3.5 mph - N/A   Clear
1:54 AM 44.6 °F - 37.4 °F 76% 30.06 in 10.0 mi Calm Calm - N/A   Clear
2:15 AM 42.8 °F - 37.4 °F 81% 30.07 in 10.0 mi Calm Calm - N/A   Clear
2:34 AM 42.8 °F - 35.6 °F 76% 30.07 in 10.0 mi Calm Calm - N/A   Clear
2:54 AM 41.0 °F - 35.6 °F 81% 30.07 in 10.0 mi Calm Calm - N/A   Clear
3:15 AM 41.0 °F - 35.6 °F 81% 30.07 in 10.0 mi Calm Calm - N/A   Clear
3:34 AM 39.2 °F - 33.8 °F 81% 30.08 in 10.0 mi Calm Calm - N/A   Clear
3:54 AM 41.0 °F - 35.6 °F 81% 30.08 in 10.0 mi Calm Calm - N/A   Clear
4:15 AM 39.2 °F - 35.6 °F 87% 30.07 in 10.0 mi Calm Calm - N/A   Clear
4:34 AM 39.2 °F - 35.6 °F 87% 30.07 in 10.0 mi Calm Calm - N/A   Clear
4:55 AM 39.2 °F - 33.8 °F 81% 30.07 in 10.0 mi Calm Calm - N/A   Clear
5:14 AM 39.2 °F - 33.8 °F 81% 30.07 in 10.0 mi Calm Calm - N/A   Clear
5:34 AM 39.2 °F 35.9 °F 35.6 °F 87% 30.07 in 10.0 mi ENE 4.6 mph - N/A   Clear
5:55 AM 39.2 °F - 33.8 °F 81% 30.08 in 10.0 mi Calm Calm - N/A   Clear
6:14 AM 39.2 °F - 33.8 °F 81% 30.07 in 10.0 mi Calm Calm - N/A   Clear
6:34 AM 39.2 °F 37.0 °F 35.6 °F 87% 30.08 in 10.0 mi ENE 3.5 mph - N/A   Clear
6:55 AM 42.8 °F - 35.6 °F 76% 30.07 in 10.0 mi Calm Calm - N/A   Clear
7:14 AM 42.8 °F - 37.4 °F 81% 30.09 in 10.0 mi Calm Calm - N/A   Clear
7:34 AM 46.4 °F - 39.2 °F 76% 30.09 in 10.0 mi Calm Calm - N/A   Clear
7:55 AM 48.2 °F - 42.8 °F 82% 30.09 in 10.0 mi ENE 4.6 mph - N/A   Clear
8:14 AM 50.0 °F - 42.8 °F 76% 30.09 in 10.0 mi ENE 6.9 mph - N/A   Clear
8:34 AM 53.6 °F - 42.8 °F 67% 30.09 in 10.0 mi East 8.1 mph - N/A   Clear
8:55 AM 55.4 °F - 37.4 °F 51% 30.09 in 10.0 mi East 8.1 mph - N/A   Clear
9:14 AM 55.4 °F - 37.4 °F 51% 30.09 in 10.0 mi East 9.2 mph - N/A   Clear
9:34 AM 57.2 °F - 39.2 °F 51% 30.08 in 10.0 mi East 11.5 mph - N/A   Clear
9:54 AM 57.2 °F - 35.6 °F 44% 30.08 in 10.0 mi ENE 8.1 mph - N/A   Clear
10:14 AM 57.2 °F - 35.6 °F 44% 30.09 in 10.0 mi East 9.2 mph - N/A   Clear
10:35 AM 57.2 °F - 35.6 °F 44% 30.10 in 10.0 mi ESE 6.9 mph - N/A   Clear
10:54 AM 57.2 °F - 35.6 °F 44% 30.09 in 10.0 mi East 10.4 mph - N/A   Clear
11:14 AM 59.0 °F - 33.8 °F 39% 30.09 in 10.0 mi Calm Calm - N/A   Clear
11:34 AM 59.0 °F - 37.4 °F 45% 30.09 in 10.0 mi East 10.4 mph 18.4 mph N/A   Clear
11:54 AM 59.0 °F - 35.6 °F 42% 30.09 in 10.0 mi NE 10.4 mph - N/A   Clear
12:14 PM 59.0 °F - 39.2 °F 48% 30.09 in 10.0 mi ENE 11.5 mph - N/A   Clear
12:34 PM 59.0 °F - 39.2 °F 48% 30.09 in 10.0 mi ENE 9.2 mph - N/A   Clear
12:54 PM 60.8 °F - 39.2 °F 45% 30.08 in 10.0 mi ENE 12.7 mph - N/A   Clear
1:14 PM 60.8 °F - 39.2 °F 45% 30.09 in 10.0 mi ENE 9.2 mph - N/A   Clear
1:35 PM 60.8 °F - 37.4 °F 42% 30.08 in 10.0 mi East 9.2 mph - N/A   Clear
1:54 PM 60.8 °F - 37.4 °F 42% 30.08 in 10.0 mi NE 8.1 mph - N/A   Clear
2:14 PM 60.8 °F - 39.2 °F 45% 30.07 in 10.0 mi ENE 10.4 mph - N/A   Clear
2:34 PM 60.8 °F - 37.4 °F 42% 30.07 in 10.0 mi ENE 8.1 mph - N/A   Clear
2:54 PM 60.8 °F - 37.4 °F 42% 30.06 in 10.0 mi NE 11.5 mph 18.4 mph N/A   Clear
3:14 PM 60.8 °F - 37.4 °F 42% 30.05 in 10.0 mi NE 11.5 mph - N/A   Clear
3:34 PM 62.6 °F - 39.2 °F 42% 30.05 in 10.0 mi East 15.0 mph - N/A   Clear
3:54 PM 60.8 °F - 39.2 °F 45% 30.04 in 10.0 mi ENE 15.0 mph - N/A   Clear
4:14 PM 60.8 °F - 41.0 °F 48% 30.04 in 10.0 mi ENE 15.0 mph - N/A   Clear
4:34 PM 60.8 °F - 39.2 °F 45% 30.03 in 10.0 mi NE 15.0 mph - N/A   Clear
4:55 PM 60.8 °F - 39.2 °F 45% 30.03 in 10.0 mi ENE 17.3 mph - N/A   Clear
5:14 PM 60.8 °F - 41.0 °F 48% 30.03 in 10.0 mi ENE 15.0 mph - N/A   Clear
5:34 PM 60.8 °F - 41.0 °F 48% 30.03 in 10.0 mi ENE 12.7 mph - N/A   Clear
5:55 PM 59.0 °F - 39.2 °F 48% 30.04 in 10.0 mi ENE 10.4 mph - N/A   Clear
6:14 PM 59.0 °F - 42.8 °F 55% 30.05 in 10.0 mi ENE 8.1 mph - N/A   Clear
6:34 PM 59.0 °F - 41.0 °F 51% 30.04 in 10.0 mi ENE 8.1 mph - N/A   Clear
6:55 PM 59.0 °F - 41.0 °F 51% 30.04 in 10.0 mi ENE 9.2 mph - N/A   Clear
7:14 PM 59.0 °F - 39.2 °F 48% 30.04 in 10.0 mi ENE 9.2 mph - N/A   Clear
7:34 PM 59.0 °F - 39.2 °F 48% 30.04 in 10.0 mi ENE 10.4 mph - N/A   Clear
7:55 PM 57.2 °F - 42.8 °F 59% 30.04 in 10.0 mi ENE 8.1 mph - N/A   Clear
8:14 PM 57.2 °F - 42.8 °F 59% 30.05 in 10.0 mi ENE 6.9 mph - N/A   Clear
8:34 PM 57.2 °F - 42.8 °F 59% 30.05 in 10.0 mi ENE 5.8 mph - N/A   Clear
8:54 PM 55.4 °F - 44.6 °F 67% 30.05 in 10.0 mi ENE 5.8 mph - N/A   Clear
9:14 PM 55.4 °F - 42.8 °F 63% 30.05 in 10.0 mi ENE 8.1 mph - N/A   Clear
9:34 PM 55.4 °F - 42.8 °F 63% 30.06 in 10.0 mi East 5.8 mph - N/A   Clear
9:54 PM 55.4 °F - 42.8 °F 63% 30.07 in 10.0 mi East 4.6 mph - N/A   Clear
10:15 PM 53.6 °F - 42.8 °F 67% 30.07 in 10.0 mi ENE 5.8 mph - N/A   Clear
10:34 PM 53.6 °F - 44.6 °F 72% 30.08 in 10.0 mi ENE 4.6 mph - N/A   Clear
10:54 PM 53.6 °F - 44.6 °F 72% 30.09 in 10.0 mi ENE 4.6 mph - N/A   Clear
11:15 PM 53.6 °F - 44.6 °F 72% 30.09 in 10.0 mi East 3.5 mph - N/A   Clear
11:34 PM 55.4 °F - 42.8 °F 63% 30.10 in 10.0 mi East 3.5 mph - N/A   Clear
11:54 PM 51.8 °F - 44.6 °F 76% 30.11 in 10.0 mi NE 5.8 mph - N/A   Clear